When you browse on this site, cookies collect data to enhance your experience and personalize the content and advertising you see.
Visit our Privacy Policy to learn more. By continuing to use the site, you agree to this use of cookies and data.
  • In Hungary
  • List of Countries
  • For 7 days
  • Water Temperature
  • Weather Map
  • News
  • Weather Widgets
  • user-avatar
    Login

    Hourly Weather Sivcevo

    Today, 23 August, Friday

    Time Temperature Precipitation Wind Pressure Humidity
    00:00 +13°C° 0 mm 1 mps 758 mmHg 89%
    01:00 +13°C° 0 mm 1 mps 758 mmHg 91%
    02:00 +12°C° 0 mm 1 mps 759 mmHg 93%
    03:00 +12°C° 0 mm 1 mps 759 mmHg 94%
    04:00 +12°C° 0 mm 1 mps 759 mmHg 94%
    05:00 +12°C° 0 mm 1 mps 758 mmHg 95%
    06:00 +13°C° 0 mm 1 mps 759 mmHg 88%
    07:00 +15°C° 0 mm 1 mps 759 mmHg 82%
    08:00 +18°C° 0 mm 1 mps 759 mmHg 74%
    09:00 +18°C° 0 mm 2 mps 759 mmHg 69%
    10:00 +20°C° 0 mm 2 mps 759 mmHg 63%
    11:00 +21°C° 0 mm 2 mps 759 mmHg 58%
    12:00 +21°C° 0 mm 2 mps 759 mmHg 56%
    13:00 +23°C° 0 mm 2 mps 758 mmHg 54%
    14:00 +23°C° 0 mm 2 mps 758 mmHg 52%
    15:00 +23°C° 0 mm 2 mps 758 mmHg 56%
    16:00 +23°C° 0 mm 2 mps 758 mmHg 60%
    17:00 +22°C° 0 mm 1 mps 758 mmHg 65%
    18:00 +20°C° 0 mm 1 mps 757 mmHg 71%
    19:00 +19°C° 0 mm 1 mps 757 mmHg 77%
    20:00 +16°C° 0 mm 1 mps 757 mmHg 84%
    21:00 +15°C° 0 mm 2 mps 757 mmHg 86%
    22:00 +15°C° 0 mm 2 mps 757 mmHg 88%
    23:00 +14°C° 0 mm 2 mps 757 mmHg 91%

    Tomorrow, 24 August, Saturday

    Time Temperature Precipitation Wind Pressure Humidity
    00:00 +14°C° 0 mm 2 mps 757 mmHg 91%
    01:00 +14°C° 0 mm 2 mps 757 mmHg 92%
    02:00 +13°C° 0 mm 2 mps 757 mmHg 92%
    03:00 +13°C° 0 mm 2 mps 756 mmHg 92%
    04:00 +13°C° 0 mm 2 mps 756 mmHg 92%
    05:00 +13°C° 0 mm 2 mps 756 mmHg 92%
    06:00 +13°C° 0 mm 3 mps 756 mmHg 86%
    07:00 +16°C° 0 mm 3 mps 756 mmHg 79%
    08:00 +18°C° 0 mm 3 mps 756 mmHg 73%
    09:00 +19°C° 0 mm 4 mps 756 mmHg 67%
    10:00 +21°C° 0 mm 4 mps 755 mmHg 62%
    11:00 +22°C° 0 mm 4 mps 755 mmHg 57%
    12:00 +23°C° 0 mm 4 mps 755 mmHg 57%
    13:00 +23°C° 0 mm 4 mps 755 mmHg 57%
    14:00 +23°C° 0 mm 4 mps 755 mmHg 57%
    15:00 +24°C° 0.1 mm 3 mps 755 mmHg 63%
    16:00 +22°C° 0.1 mm 3 mps 754 mmHg 70%
    17:00 +23°C° 0.1 mm 2 mps 754 mmHg 76%
    18:00 +20°C° 0.2 mm 2 mps 755 mmHg 81%
    19:00 +19°C° 0.2 mm 2 mps 755 mmHg 87%
    20:00 +17°C° 0.2 mm 2 mps 755 mmHg 93%
    21:00 +16°C° 0 mm 1 mps 755 mmHg 94%
    22:00 +16°C° 0 mm 1 mps 755 mmHg 94%
    23:00 +15°C° 0 mm 1 mps 755 mmHg 95%

    Day after tomorrow, 25 August, Sunday

    Time Temperature Precipitation Wind Pressure Humidity
    00:00 +14°C° 0 mm 1 mps 756 mmHg 95%
    01:00 +14°C° 0 mm 1 mps 756 mmHg 96%
    02:00 +13°C° 0 mm 1 mps 756 mmHg 96%
    03:00 +13°C° 0 mm 1 mps 756 mmHg 96%
    04:00 +12°C° 0 mm 1 mps 756 mmHg 96%
    05:00 +12°C° 0 mm 1 mps 756 mmHg 96%
    06:00 +13°C° 0 mm 1 mps 757 mmHg 93%
    07:00 +14°C° 0 mm 1 mps 757 mmHg 90%
    08:00 +15°C° 0 mm 1 mps 757 mmHg 87%
    09:00 +18°C° 0 mm 1 mps 757 mmHg 78%
    10:00 +18°C° 0 mm 2 mps 757 mmHg 69%
    11:00 +20°C° 0 mm 2 mps 758 mmHg 60%
    12:00 +21°C° 0 mm 1 mps 757 mmHg 57%
    13:00 +22°C° 0 mm 1 mps 757 mmHg 55%
    14:00 +23°C° 0 mm 1 mps 757 mmHg 53%
    15:00 +22°C° 0 mm 1 mps 757 mmHg 56%
    16:00 +22°C° 0 mm 1 mps 757 mmHg 60%
    17:00 +22°C° 0 mm 1 mps 757 mmHg 63%
    18:00 +20°C° 0 mm 1 mps 757 mmHg 70%
    19:00 +18°C° 0 mm 1 mps 757 mmHg 77%
    20:00 +15°C° 0 mm 1 mps 757 mmHg 83%
    21:00 +13°C° 0 mm 0 mps 757 mmHg 85%
    22:00 +12°C° 0 mm 0 mps 757 mmHg 87%
    23:00 +12°C° 0 mm 0 mps 758 mmHg 89%

    26 August, Monday

    Time Temperature Precipitation Wind Pressure Humidity
    00:00 +12°C° 0 mm 0 mps 757 mmHg 90%
    01:00 +11°C° 0 mm 0 mps 757 mmHg 91%
    02:00 +11°C° 0 mm 0 mps 757 mmHg 92%
    03:00 +11°C° 0 mm 0 mps 757 mmHg 93%
    04:00 +11°C° 0 mm 0 mps 757 mmHg 93%
    05:00 +10°C° 0 mm 0 mps 757 mmHg 94%
    06:00 +13°C° 0 mm 1 mps 757 mmHg 86%
    07:00 +15°C° 0 mm 1 mps 757 mmHg 79%
    08:00 +18°C° 0 mm 1 mps 757 mmHg 72%
    09:00 +20°C° 0 mm 1 mps 757 mmHg 67%
    10:00 +22°C° 0 mm 1 mps 757 mmHg 61%
    11:00 +24°C° 0 mm 1 mps 757 mmHg 55%
    12:00 +24°C° 0 mm 1 mps 757 mmHg 53%
    13:00 +24°C° 0 mm 1 mps 757 mmHg 51%
    14:00 +25°C° 0 mm 1 mps 756 mmHg 49%
    15:00 +25°C° 0 mm 1 mps 756 mmHg 55%
    16:00 +24°C° 0 mm 1 mps 756 mmHg 61%
    17:00 +24°C° 0 mm 1 mps 755 mmHg 66%
    18:00 +22°C° 0 mm 1 mps 755 mmHg 73%
    19:00 +20°C° 0 mm 1 mps 755 mmHg 79%
    20:00 +18°C° 0 mm 1 mps 755 mmHg 86%
    21:00 +16°C° 0 mm 1 mps 755 mmHg 86%
    22:00 +16°C° 0 mm 1 mps 755 mmHg 86%
    23:00 +16°C° 0 mm 1 mps 755 mmHg 86%

    27 August, Tuesday

    Time Temperature Precipitation Wind Pressure Humidity
    00:00 +16°C° 0 mm 1 mps 755 mmHg 87%
    01:00 +15°C° 0 mm 2 mps 755 mmHg 89%
    02:00 +15°C° 0 mm 2 mps 754 mmHg 90%
    03:00 +15°C° 0 mm 2 mps 754 mmHg 92%
    04:00 +15°C° 0 mm 2 mps 754 mmHg 95%
    05:00 +15°C° 0 mm 2 mps 754 mmHg 97%
    06:00 +16°C° 0 mm 2 mps 754 mmHg 91%
    07:00 +17°C° 0 mm 2 mps 754 mmHg 85%
    08:00 +18°C° 0 mm 2 mps 754 mmHg 79%
    09:00 +19°C° 0 mm 2 mps 754 mmHg 73%
    10:00 +21°C° 0 mm 3 mps 754 mmHg 67%
    11:00 +22°C° 0 mm 3 mps 754 mmHg 61%
    12:00 +24°C° 0 mm 3 mps 754 mmHg 60%
    13:00 +24°C° 0 mm 3 mps 754 mmHg 59%
    14:00 +25°C° 0 mm 3 mps 754 mmHg 57%
    15:00 +24°C° 0 mm 3 mps 754 mmHg 61%
    16:00 +24°C° 0 mm 2 mps 755 mmHg 65%
    17:00 +23°C° 0 mm 2 mps 755 mmHg 68%
    18:00 +20°C° 0 mm 2 mps 755 mmHg 75%
    19:00 +18°C° 0 mm 2 mps 755 mmHg 82%
    20:00 +16°C° 0 mm 2 mps 755 mmHg 89%
    21:00 +16°C° 0 mm 1 mps 755 mmHg 91%
    22:00 +15°C° 0 mm 1 mps 756 mmHg 93%
    23:00 +14°C° 0 mm 1 mps 756 mmHg 94%

    28 August, Wednesday

    Time Temperature Precipitation Wind Pressure Humidity
    00:00 +14°C° 0 mm 1 mps 756 mmHg 95%
    01:00 +13°C° 0 mm 1 mps 756 mmHg 95%
    02:00 +13°C° 0 mm 1 mps 756 mmHg 96%
    03:00 +12°C° 0 mm 1 mps 757 mmHg 96%
    04:00 +12°C° 0 mm 1 mps 757 mmHg 96%
    05:00 +11°C° 0 mm 1 mps 757 mmHg 97%
    06:00 +13°C° 0 mm 1 mps 757 mmHg 90%
    07:00 +14°C° 0 mm 1 mps 757 mmHg 84%
    08:00 +16°C° 0 mm 2 mps 757 mmHg 78%
    09:00 +17°C° 0 mm 2 mps 757 mmHg 69%
    10:00 +19°C° 0 mm 2 mps 757 mmHg 61%
    11:00 +20°C° 0 mm 2 mps 758 mmHg 52%
    12:00 +21°C° 0 mm 2 mps 757 mmHg 50%
    13:00 +21°C° 0 mm 2 mps 757 mmHg 48%
    14:00 +21°C° 0 mm 2 mps 757 mmHg 45%
    15:00 +21°C° 0 mm 2 mps 757 mmHg 50%
    16:00 +20°C° 0 mm 2 mps 757 mmHg 55%
    17:00 +21°C° 0 mm 1 mps 757 mmHg 59%
    18:00 +18°C° 0 mm 2 mps 757 mmHg 64%
    19:00 +16°C° 0 mm 2 mps 757 mmHg 68%
    20:00 +14°C° 0 mm 2 mps 757 mmHg 72%
    21:00 +13°C° 0 mm 2 mps 757 mmHg 73%
    22:00 +12°C° 0 mm 2 mps 757 mmHg 73%
    23:00 +12°C° 0 mm 2 mps 757 mmHg 74%
    Show more